Weather Roundup
Issued by NWS

Home | Current Version | Previous Version | Text Only | Print | Product List | Glossary On
Versions: 1 2 3 4 5 6 7 8 9 10 11 12 13 14 15 16 17 18 19 20 21 22 23 24 25 26 27 28 29 30 31 32 33 34 35 36 37 38 39 40 41 42 43 44 45 46 47 48 49 50
000
NZUS93 KARX 262010
HRRWXR

CURRENT HOURLY OBSERVATIONS ACROSS
MUCH OF THE UPPER MISSISSIPPI VALLEY
NATIONAL WEATHER SERVICE LA CROSSE WI
300 PM CDT WED APR 26 2017


...SOUTHEAST MINNESOTA...


CITY           SKY/WX    TMP DP  RH WIND       PRES   REMARKS
ROCHESTER      CLOUDY    40  38  93 NW18      29.50R WCI  31
ROCHESTER/MAYO CLOUDY    39  39  98 NW15G22   29.50S WCI  31
WINONA           N/A     45  37  76 NW10G16   29.49R
AUSTIN         CLOUDY    41  36  81 NW16G25   29.52S
ALBERT LEA     CLOUDY    39  37  93 NW14G20   29.53S WCI  31
DODGE CENTER   CLOUDY    37  37 100 NW12      29.51S WCI  30
PRESTON        CLOUDY    41  37  85 NW17      29.51R
OWATONNA       CLOUDY    39  36  87 W15       29.54S WCI  31
FARIBAULT      CLOUDY    39  36  87 NW8       29.55R WCI  34
$$

...ELSEWHERE IN MINNESOTA...


CITY           SKY/WX    TMP DP  RH WIND       PRES   REMARKS
MINNEAPOLIS    CLOUDY    40  33  76 NW13      29.55R WCI  32
INTNL FALLS    LGT SNOW  27  21  78 NE16G28   29.70F VSB 3/4 WCI  15
DULUTH         LGT SNOW  34  31  88 NE12      29.56R VSB 3/4 WCI  25
RED WING       CLOUDY    43  36  75 NW9       29.51R
REDWOOD FALLS  LGT RAIN  38  33  82 N12G18    29.62R WCI  30
MANKATO        CLOUDY    38  34  85 NW16G23   29.57R WCI  29
WORTHINGTON    CLOUDY    35  32  88 NW18      29.62  WCI  24
FAIRMONT       CLOUDY    39  35  86 NW22      29.58  WCI  29
$$

...SOUTHWEST WISCONSIN...


CITY           SKY/WX    TMP DP  RH WIND       PRES   REMARKS
LA CROSSE      CLOUDY    48  44  86 NW8       29.48R
PRAIRIE DU CHI CLOUDY    49  45  84 W10       29.48S
BOSCOBEL       CLOUDY    56  52  86 SW9       29.45S
LONE ROCK      CLOUDY    58  53  84 SW13      29.43F
PLATTEVILLE    CLOUDY    53  53 100 SW15      29.47S
FORT MC COY    CLOUDY    46  46  99 W6        29.47R FOG
CAMP DOUGLAS   CLOUDY    50  48  93 NW12      29.43R
MAUSTON-NEW LI CLOUDY    57  54  89 NW15      29.41R
VIROQUA        CLOUDY    48  48 100 W8        29.46R VSB 1
WIS DELLS      CLOUDY    62  54  75 SW12G17   29.40F
$$

...ELSEWHERE IN WISCONSIN...


CITY           SKY/WX    TMP DP  RH WIND       PRES   REMARKS
MILWAUKEE      PTSUNNY   72  59  63 SW18G24   29.46R
MADISON        CLOUDY    63  55  75 W10G17    29.41F
GREEN BAY      CLOUDY    65  60  84 S16G22    29.40R
EAU CLAIRE     CLOUDY    41  38  89 NW13      29.47R
BLACK RVR FLS  CLOUDY    45  44  98 W10       29.45R
MEDFORD        DRIZZLE   44  43  97 NW9       29.40S
WAUSAU         CLOUDY    59  57  93 SW14      29.36R
WIS RAPIDS     CLOUDY    57  54  89 W12       29.41R
MARSHFIELD     CLOUDY    46  44  93 W13       29.40R
RICE LAKE      CLOUDY    37  35  89 N12       29.50R WCI  30
$$

...NORTHEAST IOWA...


CITY           SKY/WX    TMP DP  RH WIND       PRES   REMARKS
WATERLOO       CLOUDY    46  39  76 NW14G21   29.53S
DUBUQUE        CLOUDY    51  49  92 W15       29.48F
DECORAH        CLOUDY    45  41  87 VRB7      29.50R
MASON CITY     CLOUDY    43  38  82 NW17      29.55S
CHARLES CITY   CLOUDY    45  39  81 NW15G22   29.53S
OELWEIN        CLOUDY    46  45  93 NW17      29.51F
$$

...ELSEWHERE IN IOWA...


CITY           SKY/WX    TMP DP  RH WIND       PRES   REMARKS
DES MOINES     CLOUDY    49  38  65 NW15      29.59R
IOWA CITY      CLOUDY    51  44  77 W15       29.54S
FORT DODGE     CLOUDY    43  36  75 NW14G21   29.59R
MARSHALLTOWN   CLOUDY    48  40  73 NW17      29.55F
CEDAR RAPIDS   CLOUDY    49  45  86 W15       29.52S
$$

...NORTHERN ILLINOIS...


CITY           SKY/WX    TMP DP  RH WIND       PRES   REMARKS
CHICAGO-OHARE  CLOUDY    73  57  57 SW15G22   29.48R
CHICAGO-MIDWAY PTSUNNY   75  56  51 SW15G23   29.48S
MOLINE         CLOUDY    52  47  83 SW10      29.55R
ROCKFORD       CLOUDY    65  56  72 SW17G26   29.50R
PEORIA         LGT RAIN  61  59  93 W12       29.54R FOG
$$

NOTE: "FAIR" INDICATES FEW OR NO CLOUDS BELOW 12,000 FEET WITH NO
SIGNIFICANT WEATHER AND/OR OBSTRUCTIONS TO VISIBILITY. WIND
SPEEDS ARE IN MILES-PER-HOUR.




USA.gov is the U.S. government's official web portal to all federal, state and local government web resources and services.